BAW279 HKML-HKMO

Flight info

Callsign BAW279
Flight time N/A
Altitude FL070
Route DCT
Aircraft A320/M-S/N

Departure

Time N/A
Airport Malindi International Airport (HKML)

Arrival

Time 2026-04-22 16:07
Airport Moi International Airport (HKMO)
Time Latitude Longitude Altitude Speed Heading
2026-04-22 15:53 -4.02312 39.56774 1185 ft 137 kts 20°
2026-04-22 15:53 -4.01613 39.57038 1409 ft 140 kts 20°
2026-04-22 15:54 -4.00865 39.57319 1508 ft 147 kts 20°
2026-04-22 15:54 -4.00122 39.57600 1491 ft 142 kts 20°
2026-04-22 15:54 -3.99333 39.57898 1502 ft 141 kts 20°
2026-04-22 15:54 -3.98682 39.58144 1501 ft 142 kts 20°
2026-04-22 15:55 -3.98303 39.58287 1499 ft 142 kts 20°
2026-04-22 15:55 -3.97929 39.58428 1452 ft 146 kts 20°
2026-04-22 15:55 -3.97268 39.58678 1269 ft 144 kts 20°
2026-04-22 15:55 -3.96885 39.58822 1156 ft 142 kts 20°
2026-04-22 15:56 -3.96364 39.59030 1006 ft 140 kts 23°
2026-04-22 15:56 -3.95654 39.59341 897 ft 136 kts 24°
2026-04-22 15:56 -3.94930 39.59662 910 ft 139 kts 24°
2026-04-22 15:56 -3.94273 39.59950 901 ft 141 kts 24°
2026-04-22 15:57 -3.93516 39.60283 900 ft 140 kts 24°
2026-04-22 15:57 -3.92741 39.60624 901 ft 141 kts 24°
2026-04-22 15:57 -3.92078 39.60915 900 ft 140 kts 24°
2026-04-22 15:57 -3.91711 39.61083 900 ft 140 kts 28°
2026-04-22 15:58 -3.91372 39.61308 898 ft 140 kts 43°
2026-04-22 15:58 -3.91105 39.61624 902 ft 140 kts 61°
2026-04-22 15:58 -3.90965 39.61976 906 ft 140 kts 79°
2026-04-22 15:58 -3.90945 39.62385 909 ft 141 kts 99°
2026-04-22 15:59 -3.91071 39.62787 908 ft 141 kts 120°
2026-04-22 15:59 -3.91326 39.63120 909 ft 140 kts 139°
2026-04-22 15:59 -3.91631 39.63365 914 ft 141 kts 143°
2026-04-22 15:59 -3.91936 39.63595 902 ft 142 kts 141°
2026-04-22 16:00 -3.92092 39.63720 898 ft 141 kts 140°
2026-04-22 16:00 -3.92461 39.64009 897 ft 139 kts 147°
2026-04-22 16:00 -3.92806 39.64186 899 ft 139 kts 161°
2026-04-22 16:00 -3.93179 39.64295 914 ft 139 kts 166°
2026-04-22 16:01 -3.93547 39.64398 942 ft 137 kts 162°
2026-04-22 16:01 -3.93887 39.64515 915 ft 142 kts 160°
2026-04-22 16:01 -3.94266 39.64634 889 ft 142 kts 168°
2026-04-22 16:01 -3.94646 39.64676 882 ft 138 kts 183°
2026-04-22 16:02 -3.95019 39.64612 895 ft 137 kts 200°
2026-04-22 16:02 -3.95368 39.64430 912 ft 139 kts 218°
2026-04-22 16:02 -3.95813 39.63974 914 ft 142 kts 230°
2026-04-22 16:02 -3.96377 39.63420 893 ft 139 kts 215°
2026-04-22 16:03 -3.96978 39.63068 905 ft 140 kts 206°
2026-04-22 16:03 -3.97328 39.62894 903 ft 141 kts 207°
2026-04-22 16:03 -3.97683 39.62706 900 ft 140 kts 209°
2026-04-22 16:03 -3.98023 39.62508 890 ft 140 kts 210°
2026-04-22 16:04 -3.98360 39.62309 851 ft 142 kts 210°
2026-04-22 16:04 -3.98687 39.62119 809 ft 141 kts 210°
2026-04-22 16:04 -3.99027 39.61924 763 ft 140 kts 210°
2026-04-22 16:04 -3.99362 39.61733 718 ft 139 kts 210°
2026-04-22 16:05 -3.99584 39.61606 699 ft 138 kts 210°
2026-04-22 16:05 -4.00021 39.61356 610 ft 144 kts 210°
2026-04-22 16:05 -4.00389 39.61145 458 ft 154 kts 210°
2026-04-22 16:05 -4.00754 39.60938 407 ft 142 kts 209°
2026-04-22 16:06 -4.01074 39.60760 333 ft 135 kts 209°
2026-04-22 16:06 -4.01399 39.60581 245 ft 129 kts 208°
2026-04-22 16:06 -4.01703 39.60414 210 ft 116 kts 208°
2026-04-22 16:06 -4.01944 39.60281 209 ft 86 kts 208°
2026-04-22 16:07 -4.02113 39.60189 209 ft 49 kts 208°
2026-04-22 16:07 -4.02199 39.60142 209 ft 22 kts 208°
2026-04-22 16:07 -4.02231 39.60125 209 ft 5 kts 208°
2026-04-22 16:07 -4.02289 39.60094 209 ft 29 kts 208°
2026-04-22 16:08 -4.02386 39.60042 209 ft 45 kts 208°
2026-04-22 16:08 -4.02501 39.59980 209 ft 46 kts 208°
2026-04-22 16:08 -4.02598 39.59929 209 ft 46 kts 205°
2026-04-22 16:08 -4.02694 39.59917 209 ft 28 kts 157°
2026-04-22 16:09 -4.02757 39.59959 209 ft 28 kts 141°
2026-04-22 16:09 -4.02812 39.60001 209 ft 28 kts 144°
2026-04-22 16:09 -4.02859 39.60050 209 ft 27 kts 124°
2026-04-22 16:09 -4.02893 39.60110 209 ft 27 kts 118°
2026-04-22 16:10 -4.02926 39.60172 209 ft 28 kts 118°
2026-04-22 16:10 -4.02971 39.60221 209 ft 27 kts 154°
2026-04-22 16:10 -4.03011 39.60230 209 ft 26 kts 185°
2026-04-22 16:10 -4.03086 39.60188 209 ft 24 kts 224°
2026-04-22 16:11 -4.03136 39.60151 209 ft 24 kts 210°
2026-04-22 16:11 -4.03195 39.60116 209 ft 24 kts 215°
2026-04-22 16:11 -4.03229 39.60105 209 ft 6 kts 153°
2026-04-22 16:11 -4.03236 39.60115 209 ft 4 kts 124°
2026-04-22 16:12 -4.03244 39.60126 209 ft 5 kts 124°
2026-04-22 16:12 -4.03254 39.60142 209 ft 5 kts 120°
2026-04-22 16:12 -4.03264 39.60158 209 ft 6 kts 120°
2026-04-22 16:12 -4.03275 39.60178 209 ft 6 kts 119°
2026-04-22 16:13 -4.03285 39.60196 209 ft 5 kts 121°
2026-04-22 16:13 -4.03287 39.60199 209 ft 0 kts 119°